Regional Weather Roundup
Issued by NWS Charleston, WV

Home | Current Version | Previous Version | Text Only | Print | Product List | Glossary On
Versions: 1 2 3 4 5 6 7 8 9 10 11 12 13 14 15 16 17 18 19 20 21 22 23 24 25 26 27 28 29 30 31 32 33 34 35 36 37 38 39 40 41 42 43 44 45 46 47 48 49 50
000
ASUS41 KRLX 142210
RWRRLX
West Virginia Regional Weather Roundup
National Weather Service Charleston WV
500 PM EST SUN FEB 14 2016

Note: "fair" indicates few or no clouds below 12,000 feet with no
significant weather and/or obstructions to visibility.

WVZ003-142300-
Northern Panhandle of West Virginia

CITY           SKY/WX    TMP DP  RH WIND       PRES   REMARKS
WHEELING         N/A     18  -1  43 E9        30.31S WCI   7
$$

WVZ009-142300-
Northwest West Virginia

CITY           SKY/WX    TMP DP  RH WIND       PRES   REMARKS
PARKERSBURG    CLOUDY    21   3  45 E3        30.36R
$$

WVZ006-142300-
Western West Virginia

CITY           SKY/WX    TMP DP  RH WIND       PRES   REMARKS
HUNTINGTON     LGT SNOW  21  15  78 E8        30.25F VSB 3/4
$$

WVZ015-142300-
West Central West Virginia

CITY           SKY/WX    TMP DP  RH WIND       PRES   REMARKS
CHARLESTON     CLOUDY    25   4  40 N5        30.28R
$$

WVZ022-031-142300-
North Central West Virginia

CITY           SKY/WX    TMP DP  RH WIND       PRES   REMARKS
CLARKSBURG       N/A    122   1   1 N6        30.30R HX 107
MORGANTOWN     NOT AVBL
$$

WVZ025-035-042-045-142300-
Southern West Virginia

CITY           SKY/WX    TMP DP  RH WIND       PRES   REMARKS
BECKLEY        PTSUNNY   18   7  62 SE12G21   30.18S WCI   5
LOGAN          FLURRIES  23  12  63 VRB5      30.20S
BLUEFIELD      LGT SNOW  18  12  77 CALM      30.15F
LEWISBURG      CLOUDY    24   1  37 SE6       30.23R
$$

WVZ047-142300-
Northern Mountains of West Virginia

CITY           SKY/WX    TMP DP  RH WIND       PRES   REMARKS
ELKINS         MOCLDY    23  -1  35 CALM      30.21S
$$

WVZ052-142300-
Eastern Panhandle of West Virginia

CITY           SKY/WX    TMP DP  RH WIND       PRES   REMARKS
MARTINSBURG      N/A     21  -1  38 E6        30.43F
PETERSBURG       N/A     25   1  35 CALM      30.35R
$$



USA.gov is the U.S. government's official web portal to all federal, state and local government web resources and services.